Zurück zum Katalog

SL-16 DEB

AktivLEO
NORAD 22343·DEBRIS·🇷🇺 Russia

Gestartet Dec 25, 1992 von Baikonur Cosmodrome

Loading…

Nächste Überflüge (nächste 24 Stunden)

TLE

AktuellSource: Space-Track

Epoche: Sep 14, 2026, 13:27 UTC

1 22343U 92093AG  26257.56066950  .00000103  00000-0  78464-4 0  9993
2 22343  70.9468 289.2400 0092878  45.8703 115.7477 14.12141471728821

Verfolge SL-16 DEB in Echtzeit mit AllMySat

Download on the App Store